Погода в Селендуме

Россия / Республика Бурятия     50°55′02″N   106°14′09″E
темп.,
°C
ветер,
м/с
пор.,
м/с
влажн.,
%
обл.,
%
осадки,
мм/ч
давл.,
гПа
погр.,
м
9 мая, вс
вс923:00+5зсз227869 0.0 101333
02:00+4зсз118151 0.0 101313
05:00+3сз118397 0.0 101310
08:00+7ссв016313 0.0 1013304
11:00+12юз344489 0.0 10101580
14:00+15ююз0236100 0.0 10071948
17:00+16в2234100 0.0 10051453
20:00+12с224436 0.0 100634
10 мая, пн
пн1023:00+8ссз2266100 0.0 100867
02:00+6с5882100 0.3 1009466
05:00+5с3781100 0.1 1011543
08:00+5с4776100 0.8 1012800
11:00+6с5766100 0.6 1013917
14:00+9ссв6748100 0.7 10121370
17:00+9с994252 0.0 10121563
20:00+6с475930 0.0 1014501
11 мая, вт
вт1123:00+4с267299 0.0 1015596
02:00+3з228185 0.0 101518
05:00+4ссз137317 0.0 1015190
08:00+7сз3660100 0.0 1014995
11:00+10с7114916 0.0 10141453
14:00+11с79425 0.0 10141662
17:00+12ссз67405 0.0 10141582
20:00+9сз22545 0.0 101550
12 мая, ср
ср1223:00+6зсз22645 0.0 101613
02:00+4зсз22725 0.0 101612
05:00+3з11750 0.0 101611
08:00+8юз12530 0.0 1014347
11:00+14ююз34348 0.0 10111449
14:00+16з252693 0.0 10082693
17:00+14с463866 0.1 1007737
20:00+13ссз3441100 0.1 1008121
13 мая, чт
чт1323:00+9с2254100 0.0 101119
02:00+8с4765100 0.0 1012546
05:00+6с4967100 0.0 1015977
08:00+6с71247100 0.0 10171734
11:00+9с911295 0.0 10182208
14:00+11с892690 0.0 10172744
17:00+11с782491 0.0 10172694
20:00+9ссз35345 0.0 1018108